Date String (YYYY-MM-DD hh:mm:ss) UTC,Instrument flags,Ambient pressure (hPa),Sample flow (lpm),Bypass flow (lpm),Sample temperature (°C),Ambient temperature (°C),ASC tube jacket temperature (°C),LED temperature (°C),Box temperature (°C),Sample RH (%),Span deviation,Mass concentration (μg/m³),Mass concentration (μg/m³),Mass concentration (μg/m³)
DateTimeUTC,F1_M11,P_M11,Q1_M11,Q2_M11,T1_M11,T2_M11,T3_M11,T4_M11,T5_M11,U1_M11,ZSPAN_M11,X2_M11,X0_M11,X1_M11
2021-08-26 23:00:00,,0827.4,5.00,0.00,29.1,27.3,00.0,38.2,30.9,33.1,-000.6,0006.05,0015.09,0004.98
2021-08-26 23:01:00,,0827.4,5.01,0.00,29.1,27.6,00.0,38.2,31.0,33.9,-000.3,0006.05,0015.00,0005.00
2021-08-26 23:02:00,,0827.4,4.99,0.00,29.2,27.9,00.0,38.2,31.1,34.4,0000.1,0006.11,0015.21,0005.07
2021-08-26 23:03:00,,0827.3,5.01,0.00,29.2,28.1,00.0,38.2,31.1,34.4,0000.4,0006.23,0014.80,0005.15
2021-08-26 23:04:00,,0827.3,5.00,0.00,29.3,28.3,00.0,38.2,31.2,34.8,0000.4,0006.31,0014.83,0005.22
2021-08-26 23:05:00,,0827.3,4.99,0.00,29.4,28.5,00.0,38.3,31.3,33.5,0000.5,0006.39,0013.90,0005.25
2021-08-26 23:06:00,,0827.3,5.00,0.00,29.6,28.6,00.0,38.3,31.4,32.1,0000.5,0006.42,0013.50,0005.25
2021-08-26 23:07:00,,0827.3,5.00,0.00,29.7,27.7,00.0,38.3,31.2,32.2,0000.6,0006.45,0013.25,0005.26
2021-08-26 23:08:00,,0827.2,5.00,0.00,29.6,26.2,00.0,38.3,30.7,32.3,0000.4,0006.43,0013.22,0005.24
2021-08-26 23:09:00,,0827.2,5.00,0.00,29.5,25.8,00.0,38.3,30.6,31.7,0000.6,0006.37,0013.07,0005.22
2021-08-26 23:10:00,,0827.2,4.99,0.00,29.4,26.1,00.0,38.3,30.6,31.7,0001.3,0006.29,0012.49,0005.18
2021-08-26 23:11:00,,0827.2,5.00,0.00,29.4,26.5,00.0,38.3,30.7,30.7,0001.6,0006.20,0012.35,0005.12
2021-08-26 23:12:00,,0827.2,5.01,0.00,29.4,27.0,00.0,38.3,30.9,30.9,0001.5,0006.16,0012.29,0005.05
2021-08-26 23:13:00,,0827.2,5.00,0.00,29.4,27.4,00.0,38.3,31.0,31.9,0001.3,0006.08,0012.03,0004.97
2021-08-26 23:14:00,,0827.2,4.99,0.00,29.5,27.7,00.0,38.3,31.1,32.0,0001.1,0005.97,0012.13,0004.89
2021-08-26 23:15:00,,0827.2,5.01,0.00,29.5,28.0,00.0,38.4,31.2,32.4,0001.0,0005.85,0011.67,0004.80
2021-08-26 23:16:00,,0827.2,4.99,0.00,29.6,28.2,00.0,38.4,31.2,32.8,0000.5,0005.69,0011.12,0004.73
2021-08-26 23:17:00,,0827.1,5.01,0.00,29.6,28.4,00.0,38.4,31.3,31.6,0000.3,0005.63,0011.27,0004.72
2021-08-26 23:18:00,,0827.1,4.99,0.00,29.6,28.5,00.0,38.5,31.4,31.4,0000.7,0005.62,0012.16,0004.68
2021-08-26 23:19:00,,0827.2,5.00,0.00,29.7,28.1,00.0,38.5,31.2,31.6,0001.3,0005.59,0012.07,0004.66
2021-08-26 23:20:00,,0827.1,5.00,0.00,29.5,26.4,00.0,38.5,30.7,30.9,0001.2,0005.55,0011.97,0004.63
2021-08-26 23:21:00,,0827.2,5.00,0.00,29.4,25.7,00.0,38.5,30.5,31.7,0001.0,0005.51,0011.68,0004.60
2021-08-26 23:22:00,,0827.4,5.00,0.00,29.3,25.9,00.0,38.4,30.6,31.9,0001.1,0005.50,0011.15,0004.60
2021-08-26 23:23:00,,0827.3,4.99,0.00,29.3,26.4,00.0,38.4,30.7,32.5,0001.2,0005.48,0011.07,0004.62
2021-08-26 23:24:00,,0827.0,5.00,0.00,29.3,26.8,00.0,38.4,30.8,31.9,0001.1,0005.46,0010.83,0004.61
2021-08-26 23:25:00,,0827.0,5.01,0.00,29.3,27.2,00.0,38.3,30.9,32.1,0001.2,0005.47,0010.76,0004.59
2021-08-26 23:26:00,,0827.0,5.00,0.00,29.3,27.6,00.0,38.3,31.0,32.3,0001.5,0005.47,0010.81,0004.59
2021-08-26 23:27:00,,0827.2,4.99,0.00,29.4,27.9,00.0,38.4,31.1,32.1,0001.6,0005.53,0010.89,0004.59
2021-08-26 23:28:00,,0827.1,5.01,0.00,29.4,28.1,00.0,38.4,31.2,32.1,0002.0,0005.47,0010.51,0004.56
2021-08-26 23:29:00,,0827.3,5.00,0.00,29.5,28.3,00.0,38.4,31.3,31.3,0002.0,0005.38,0009.54,0004.54
2021-08-26 23:30:00,,0827.2,5.00,0.00,29.5,28.5,00.0,38.4,31.3,31.7,0001.7,0005.32,0009.51,0004.52
2021-08-26 23:31:00,,0827.1,5.00,0.00,29.6,28.4,00.0,38.4,31.3,32.1,0002.0,0005.33,0009.56,0004.53
2021-08-26 23:32:00,,0826.9,5.00,0.00,29.5,26.9,00.0,38.4,30.9,32.1,0001.9,0005.36,0010.04,0004.54
2021-08-26 23:33:00,,0826.9,5.01,0.00,29.3,25.8,00.0,38.4,30.6,31.9,0001.7,0005.34,0010.44,0004.52
2021-08-26 23:34:00,,0826.9,4.99,0.00,29.2,25.9,00.0,38.4,30.6,31.4,0001.5,0005.31,0011.15,0004.50
2021-08-26 23:35:00,,0827.0,5.00,0.00,29.2,26.3,00.0,38.4,30.7,32.3,0001.1,0005.26,0011.47,0004.48
2021-08-26 23:36:00,,0826.9,5.00,0.00,29.2,26.8,00.0,38.3,30.8,32.2,0001.0,0005.22,0011.28,0004.46
2021-08-26 23:37:00,,0827.0,5.01,0.00,29.2,27.2,00.0,38.3,30.9,31.7,0001.0,0005.19,0011.13,0004.43
2021-08-26 23:38:00,,0826.9,4.99,0.00,29.2,27.6,00.0,38.3,31.0,31.9,0000.8,0005.14,0011.37,0004.40
2021-08-26 23:39:00,,0826.9,4.99,0.00,29.3,27.9,00.0,38.3,31.1,31.9,0000.3,0005.14,0011.85,0004.38
2021-08-26 23:40:00,,0826.9,5.01,0.00,29.3,28.1,00.0,38.3,31.1,31.5,0000.2,0005.10,0012.31,0004.35
2021-08-26 23:41:00,,0826.9,5.00,0.00,29.4,28.3,00.0,38.3,31.2,31.1,0000.2,0005.08,0012.68,0004.32
2021-08-26 23:42:00,,0826.8,5.01,0.00,29.4,28.5,00.0,38.4,31.3,31.3,0000.4,0005.04,0013.76,0004.27
2021-08-26 23:43:00,,0827.0,4.99,0.00,29.5,28.6,00.0,38.4,31.3,30.6,0000.5,0005.00,0013.71,0004.23
2021-08-26 23:44:00,,0826.9,5.00,0.00,29.5,27.4,00.0,38.4,31.0,30.5,0000.7,0004.95,0013.37,0004.20
2021-08-26 23:45:00,,0826.9,5.01,0.00,29.3,26.0,00.0,38.4,30.7,31.3,0000.6,0004.94,0012.69,0004.16
2021-08-26 23:46:00,,0826.8,4.99,0.00,29.2,25.8,00.0,38.4,30.6,31.8,0001.0,0004.88,0012.24,0004.13
2021-08-26 23:47:00,,0826.8,5.00,0.00,29.1,26.2,00.0,38.3,30.6,31.7,0001.1,0004.86,0012.20,0004.10
2021-08-26 23:48:00,,0826.8,5.00,0.00,29.1,26.7,00.0,38.3,30.7,32.1,0001.3,0004.86,0012.22,0004.09
2021-08-26 23:49:00,,0827.0,4.99,0.00,29.1,27.1,00.0,38.3,30.9,32.1,0001.5,0004.82,0012.15,0004.07
2021-08-26 23:50:00,,0826.8,5.00,0.00,29.2,27.5,00.0,38.3,31.0,32.3,0001.8,0004.75,0011.65,0004.05
2021-08-26 23:51:00,,0826.8,5.01,0.00,29.2,27.8,00.0,38.3,31.1,32.4,0001.7,0004.72,0011.04,0004.03
2021-08-26 23:52:00,,0826.8,4.99,0.00,29.3,28.1,00.0,38.3,31.1,31.6,0001.8,0004.68,0010.62,0004.01
2021-08-26 23:53:00,,0826.8,5.00,0.00,29.3,28.3,00.0,38.3,31.2,30.6,0001.9,0004.66,0009.58,0003.99
2021-08-26 23:54:00,,0826.7,5.01,0.00,29.4,28.5,00.0,38.3,31.3,30.6,0001.5,0004.62,0008.89,0003.97
2021-08-26 23:55:00,,0826.7,5.00,0.00,29.4,28.4,00.0,38.3,31.3,29.2,0000.5,0004.56,0008.79,0003.94
2021-08-26 23:56:00,,0826.7,5.00,0.00,29.4,26.9,00.0,38.3,30.8,29.2,0000.6,0004.47,0008.47,0003.90
2021-08-26 23:57:00,,0826.7,5.01,0.00,29.2,25.9,00.0,38.3,30.5,29.4,0000.6,0004.43,0008.36,0003.87
2021-08-26 23:58:00,,0826.8,4.99,0.00,29.1,26.0,00.0,38.3,30.6,29.3,0000.5,0004.37,0008.35,0003.82
2021-08-26 23:59:00,,0826.7,5.00,0.00,29.1,26.4,00.0,38.3,30.6,29.9,0000.3,0004.28,0008.63,0003.76
